| time (UTC) | temp F | wind direction | speed MPH | gust MPH | rain 1hr in | rain 24hr in | rain mn in | humidity % | barometer mb |
| 20260901124529 | 59 | 167 | 5.0 | 7.0 | 0.00 | 0.00 | 0.00 | 71 | 1010.9 |
| 20260901123030 | 59 | 165 | 3.0 | 7.0 | 0.00 | 0.00 | 0.00 | 71 | 1010.8 |
| 20260901120030 | 60 | 216 | 2.0 | 7.0 | 0.00 | 0.00 | 0.00 | 71 | 1010.7 |
| 20260901114603 | 59 | 297 | 1.0 | 7.0 | 0.00 | 0.00 | 0.00 | 71 | 1010.8 |
| 20260901113102 | 59 | 285 | 0.0 | 3.0 | 0.00 | 0.00 | 0.00 | 69 | 1010.8 |
| 20260901111532 | 60 | 203 | 2.0 | 11.0 | 0.00 | 0.00 | 0.00 | 68 | 1010.7 |
| 20260901104527 | 60 | 137 | 2.0 | 7.0 | 0.00 | 0.00 | 0.00 | 68 | 1010.7 |
| 20260901103032 | 57 | 118 | 2.0 | 8.0 | 0.00 | 0.00 | 0.00 | 70 | 1010.7 |
| 20260901100144 | 52 | 95 | 1.0 | 4.0 | 0.00 | 0.00 | 0.00 | 69 | 1010.6 |
| 20260901094531 | 53 | 67 | 0.0 | 1.0 | 0.00 | 0.00 | 0.00 | 68 | 1010.7 |
| 20260901093030 | 51 | 68 | 0.0 | 4.0 | 0.00 | 0.00 | 0.00 | 67 | 1010.7 |
| 20260901091530 | 51 | 189 | 0.0 | 5.0 | 0.00 | 0.00 | 0.00 | 67 | 1010.6 |
| 20260901084531 | 51 | 270 | 0.0 | 2.0 | 0.00 | 0.00 | 0.00 | 64 | 1010.6 |
| 20260901083029 | 52 | 270 | 0.0 | 0.0 | 0.00 | 0.00 | 0.00 | 62 | 1010.8 |
| 20260901081532 | 52 | 270 | 0.0 | 3.0 | 0.00 | 0.00 | 0.00 | 63 | 1010.8 |
| 20260901080028 | 53 | 141 | 0.0 | 2.0 | 0.00 | 0.00 | 0.00 | 61 | 1010.7 |
| 20260901073031 | 53 | 281 | 0.0 | 5.0 | 0.00 | 0.00 | 0.00 | 60 | 1010.6 |
| 20260901071529 | 53 | 231 | 0.0 | 4.0 | 0.00 | 0.00 | 0.00 | 58 | 1010.5 |
| 20260901070033 | 55 | 138 | 0.0 | 4.0 | 0.00 | 0.00 | 0.00 | 54 | 1010.5 |
| 20260901064531 | 55 | 248 | 1.0 | 3.0 | 0.00 | 0.00 | 0.00 | 55 | 1010.6 |
| 20260901063144 | 55 | 270 | 0.0 | 3.0 | 0.00 | 0.00 | 0.00 | 53 | 1010.7 |
| 20260901061608 | 55 | 270 | 0.0 | 0.0 | 0.00 | 0.00 | 0.00 | 55 | 1010.9 |
| 20260901060031 | 55 | 270 | 0.0 | 0.0 | 0.00 | 0.00 | 0.00 | 53 | 1010.8 |
| 20260901054530 | 55 | 270 | 0.0 | 0.0 | 0.00 | 0.00 | 0.00 | 57 | 1011.0 |
| 20260901053031 | 56 | 270 | 0.0 | 0.0 | 0.00 | 0.00 | 0.00 | 53 | 1011.0 |
| 20260901051531 | 58 | 270 | 0.0 | 1.0 | 0.00 | 0.00 | 0.00 | 49 | 1010.9 |
| 20260901044530 | 60 | 154 | 1.0 | 3.0 | 0.00 | 0.00 | 0.00 | 46 | 1010.9 |
| 20260901040030 | 65 | 127 | 0.0 | 4.0 | 0.00 | 0.00 | 0.00 | 43 | 1010.4 |
| 20260901034532 | 68 | 90 | 1.0 | 4.0 | 0.00 | 0.00 | 0.00 | 41 | 1010.2 |
| 20260901033032 | 70 | 151 | 5.0 | 9.0 | 0.00 | 0.00 | 0.00 | 41 | 1010.0 |
| 20260901031526 | 65 | 158 | 3.0 | 11.0 | 0.00 | 0.00 | 0.00 | 44 | 1010.0 |
| 20260901030030 | 65 | 337 | 0.0 | 0.0 | 0.00 | 0.00 | 0.00 | 44 | 1010.0 |
| 20260901024532 | 66 | 337 | 0.0 | 0.0 | 0.00 | 0.00 | 0.00 | 41 | 1009.8 |
| 20260901023031 | 68 | 337 | 0.0 | 0.0 | 0.00 | 0.00 | 0.00 | 39 | 1009.7 |
| 20260901020031 | 73 | 337 | 0.0 | 0.0 | 0.00 | 0.00 | 0.00 | 31 | 1009.6 |
| 20260901013028 | 80 | 337 | 3.0 | 6.0 | 0.00 | 0.00 | 0.00 | 25 | 1009.5 |
| 20260901011528 | 81 | 345 | 4.0 | 7.0 | 0.00 | 0.00 | 0.00 | 24 | 1009.6 |
| 20260901010030 | 81 | 341 | 4.0 | 7.0 | 0.00 | 0.00 | 0.00 | 24 | 1009.6 |
| 20260901004533 | 82 | 359 | 4.0 | 7.0 | 0.00 | 0.00 | 0.00 | 23 | 1009.7 |
| 20260901003033 | 82 | 350 | 5.0 | 10.0 | 0.00 | 0.00 | 0.00 | 23 | 1009.9 |
| 20260831231540 | 81 | 3 | 7.0 | 14.0 | 0.00 | 0.00 | 0.00 | 26 | 1010.4 |
| 20260831230032 | 81 | 358 | 9.0 | 15.0 | 0.00 | 0.00 | 0.00 | 26 | 1010.5 |
| 20260831224604 | 81 | 13 | 8.0 | 14.0 | 0.00 | 0.00 | 0.00 | 26 | 1010.8 |
| 20260831221607 | 80 | 4 | 8.0 | 15.0 | 0.00 | 0.00 | 0.00 | 28 | 1011.1 |
| 20260831220030 | 79 | 359 | 8.0 | 16.0 | 0.00 | 0.00 | 0.00 | 29 | 1011.3 |
| 20260831214536 | 79 | 11 | 8.0 | 14.0 | 0.00 | 0.00 | 0.00 | 30 | 1011.6 |
| 20260831213105 | 78 | 15 | 10.0 | 18.0 | 0.00 | 0.00 | 0.00 | 31 | 1011.8 |
| 20260831211532 | 78 | 18 | 8.0 | 18.0 | 0.00 | 0.00 | 0.00 | 31 | 1011.9 |
| 20260831210031 | 78 | 25 | 9.0 | 18.0 | 0.00 | 0.00 | 0.00 | 32 | 1012.1 |
| 20260831204535 | 77 | 22 | 8.0 | 19.0 | 0.00 | 0.00 | 0.00 | 33 | 1012.2 |
| 20260831203031 | 77 | 351 | 9.0 | 15.0 | 0.00 | 0.00 | 0.00 | 33 | 1012.4 |
| 20260831201652 | 76 | 353 | 7.0 | 18.0 | 0.00 | 0.00 | 0.00 | 33 | 1012.7 |
| 20260831200030 | 76 | 15 | 8.0 | 15.0 | 0.00 | 0.00 | 0.00 | 34 | 1012.9 |
| 20260831194532 | 75 | 3 | 9.0 | 17.0 | 0.00 | 0.00 | 0.00 | 35 | 1013.1 |
| 20260831193031 | 74 | 18 | 9.0 | 16.0 | 0.00 | 0.00 | 0.00 | 35 | 1013.3 |
| 20260831191532 | 74 | 351 | 7.0 | 14.0 | 0.00 | 0.00 | 0.00 | 36 | 1013.6 |
| 20260831190146 | 73 | 359 | 7.0 | 15.0 | 0.00 | 0.00 | 0.00 | 38 | 1013.8 |
| 20260831184537 | 71 | 325 | 7.0 | 16.0 | 0.00 | 0.00 | 0.00 | 45 | 1014.1 |
| 20260831181609 | 69 | 297 | 10.0 | 16.0 | 0.00 | 0.00 | 0.00 | 47 | 1014.5 |
| 20260831180035 | 68 | 316 | 8.0 | 15.0 | 0.00 | 0.00 | 0.00 | 49 | 1014.7 |
| 20260831174535 | 67 | 310 | 6.0 | 19.0 | 0.00 | 0.00 | 0.00 | 52 | 1014.8 |
| 20260831173032 | 66 | 321 | 5.0 | 10.0 | 0.00 | 0.00 | 0.00 | 55 | 1014.9 |
| 20260831171532 | 64 | 292 | 4.0 | 8.0 | 0.00 | 0.00 | 0.00 | 59 | 1015.1 |
| 20260831170032 | 63 | 288 | 4.0 | 7.0 | 0.00 | 0.00 | 0.00 | 61 | 1015.3 |
| 20260831164532 | 62 | 290 | 4.0 | 6.0 | 0.00 | 0.00 | 0.00 | 61 | 1015.5 |
| 20260831163106 | 62 | 290 | 4.0 | 6.0 | 0.00 | 0.00 | 0.00 | 61 | 1015.6 |
| 20260831161530 | 62 | 304 | 2.0 | 5.0 | 0.00 | 0.00 | 0.00 | 60 | 1015.8 |
| 20260831160028 | 63 | 78 | 0.0 | 2.0 | 0.00 | 0.00 | 0.00 | 63 | 1015.9 |
| 20260831154528 | 59 | 90 | 0.0 | 0.0 | 0.00 | 0.00 | 0.00 | 70 | 1015.9 |
| 20260831153032 | 57 | 90 | 0.0 | 0.0 | 0.00 | 0.00 | 0.00 | 78 | 1015.9 |
| 20260831151530 | 55 | 90 | 0.0 | 0.0 | 0.00 | 0.00 | 0.00 | 89 | 1015.9 |
| 20260831144529 | 46 | 90 | 0.0 | 0.0 | 0.00 | 0.00 | 0.00 | 95 | 1015.7 |
| 20260831143028 | 43 | 90 | 0.0 | 0.0 | 0.00 | 0.00 | 0.00 | 96 | 1015.6 |
| 20260831141608 | 42 | 90 | 0.0 | 0.0 | 0.00 | 0.00 | 0.00 | 95 | 1015.5 |
| 20260831140032 | 41 | 90 | 0.0 | 0.0 | 0.00 | 0.00 | 0.00 | 95 | 1015.4 |
| 20260831134533 | 41 | 90 | 0.0 | 0.0 | 0.00 | 0.00 | 0.00 | 95 | 1015.4 |
| 20260831133032 | 41 | 90 | 0.0 | 0.0 | 0.00 | 0.00 | 0.00 | 94 | 1015.3 |
| 20260831130027 | 41 | 90 | 0.0 | 0.0 | 0.00 | 0.00 | 0.00 | 94 | 1015.4 |